Hastings, NE

3:59 AM CDT on September 30, 2016 (GMT -0500)
Hastings Municipal

Weather History for KHSI - March, 2013

Change the Weather History Date:

Saturday, March 2, 2013

  Actual Average Record
Temperature  
Mean Temperature 23 °F 34 °F  
Max Temperature 37 °F 45 °F 79 °F (1992)
Min Temperature 9 °F 24 °F -5 °F (1913)
Degree Days  
Heating Degree Days 42 30  
Month to date heating degree days 84 61  
Since 1 July heating degree days 4711 4691  
Cooling Degree Days 0 0  
Month to date cooling degree days 0 0  
Year to date cooling degree days 0 0  
Moisture  
Dew Point 21 °F    
Average Humidity 82    
Maximum Humidity 100    
Minimum Humidity 64    
Precipitation  
Precipitation 0.00 in 0.03 in 0.75 in (1951)
Month to date precipitation 0.00 0.06  
Year to date precipitation 1.22 0.96  
Snow  
Snow 0.00 in 0.20 in 5.50 in (1948)
Month to date snowfall 0.0 0.4  
Since 1 July snowfall 23.8 22.8  
Snow Depth 3.00 in    
Sea Level Pressure  
Sea Level Pressure 30.26 in    
Wind  
Wind Speed 6 mph (SSW)    
Max Wind Speed 14 mph    
Max Gust Speed 20 mph    
Visibility 9 miles    
Events      
T = Trace of Precipitation, MM = Missing Value Source: NWS Daily Summary

Daily Weather History Graph

Daily Weather History Graph

Search for Another Location

Airport or City:

Trip Planner

Search our weather history database for the weather conditions in past years. The results will help you decide how hot, cold, wet, or windy it might be!

Date:

Astronomy

Mar. 02, 2013 Rise Set
Actual Time 7:05 AM CST 6:26 PM CST
Civil Twilight 6:38 AM CST 6:53 PM CST
Nautical Twilight 6:06 AM CST 7:25 PM CST
Astronomical Twilight 5:34 AM CST 7:57 PM CST
Moon No Moon Rise 9:33 AM CST (3/2)
Length of Visible Light 12h 15m
Length of Day
11h 20m
Waning Gibbous, 74% of the Moon is Illuminated
Mar 2
Waning Gibbous
Mar 4
Last Quarter
Mar 11
New
Mar 19
First Quarter
Mar 27
Full

Hourly Weather History & Observations

Time (CST) Temp. Windchill Dew Point Humidity Pressure Visibility Wind Dir Wind Speed Gust Speed Precip Events Conditions
12:53 AM 15.1 °F - 10.9 °F 84% 30.40 in 10.0 mi Calm Calm - N/A   Clear
1:53 AM 10.9 °F 4.7 °F 10.0 °F 96% 30.40 in 9.0 mi West 3.5 mph - N/A   Clear
2:53 AM 10.9 °F 4.7 °F 9.0 °F 92% 30.40 in 8.0 mi West 3.5 mph - N/A   Clear
3:53 AM 12.0 °F - 10.0 °F 92% 30.39 in 7.0 mi Calm Calm - N/A   Clear
4:53 AM 10.0 °F - 8.1 °F 92% 30.38 in 9.0 mi Calm Calm - N/A   Clear
5:53 AM 12.9 °F - 10.0 °F 88% 30.38 in 7.0 mi Calm Calm - N/A   Scattered Clouds
6:53 AM 16.0 °F - 12.9 °F 88% 30.36 in 8.0 mi Calm Calm - N/A   Overcast
7:53 AM 17.1 °F - 16.0 °F 96% 30.35 in 6.0 mi Calm Calm - N/A   Scattered Clouds
8:53 AM 18.0 °F 11.1 °F 17.1 °F 96% 30.34 in 7.0 mi South 4.6 mph - N/A   Partly Cloudy
9:53 AM 21.9 °F 13.4 °F 19.0 °F 89% 30.34 in 10.0 mi South 6.9 mph - N/A   Overcast
10:53 AM 27.0 °F 18.7 °F 21.0 °F 78% 30.32 in 10.0 mi SSE 8.1 mph - N/A   Scattered Clouds
11:53 AM 30.9 °F 23.5 °F 24.1 °F 76% 30.30 in 10.0 mi South 8.1 mph - N/A   Partly Cloudy
12:53 PM 33.1 °F 24.9 °F 25.0 °F 72% 30.27 in 10.0 mi South 10.4 mph - N/A   Clear
1:53 PM 35.1 °F 26.4 °F 26.1 °F 70% 30.24 in 10.0 mi South 12.7 mph - N/A   Clear
2:53 PM 36.0 °F 28.0 °F 27.0 °F 70% 30.20 in 10.0 mi South 11.5 mph - N/A   Clear
3:53 PM 37.0 °F 30.4 °F 27.0 °F 67% 30.19 in 10.0 mi South 9.2 mph - N/A   Clear
4:53 PM 36.0 °F 28.0 °F 28.0 °F 73% 30.18 in 10.0 mi SSW 11.5 mph - N/A   Clear
5:53 PM 35.1 °F 26.9 °F 28.0 °F 76% 30.16 in 10.0 mi SSW 11.5 mph - N/A   Clear
6:53 PM 33.1 °F 25.5 °F 28.0 °F 82% 30.16 in 10.0 mi South 9.2 mph - N/A   Clear
7:53 PM 32.0 °F 24.8 °F 28.0 °F 85% 30.14 in 10.0 mi South 8.1 mph - N/A   Clear
8:53 PM 30.9 °F 25.2 °F 28.0 °F 89% 30.14 in 10.0 mi South 5.8 mph - N/A   Clear
9:53 PM 30.0 °F 24.1 °F 28.0 °F 92% 30.11 in 8.0 mi South 5.8 mph - N/A   Clear
10:53 PM 30.0 °F 22.4 °F 28.0 °F 92% 30.09 in 8.0 mi SSW 8.1 mph - N/A   Clear
11:53 PM 30.2 °F 24.3 °F 28.4 °F 93% 30.00 in 7.0 mi SSW 5.8 mph - N/A   Partly Cloudy